Location: Big Prairie
(40.6673°N, 82.0952°W)
Time: 18:30:34
(UTC+00:00)

USA 276 - Pass Details

Date: 05 July 2022
Orbit: 366 x 369 km, 50.0° (Epoch: 12 July)

Event Time Altitude Azimuth Distance (km) Brightness Sun altitude
Rises 04:34:19 0° 308° (NW) 2,209 6.7 -25.1°
Reaches altitude 10° 04:36:41 10° 325° (NW) 1,360 5.7 -25.2°
Enters shadow 04:38:49 21° 9° (N) 906 4.6 -25.3°
